Tracking 19909 objects as of 21-Oct-2019
HD Live streaming from Space Station
objects crossing your sky now

SL-14 R/B

Track SL-14 R/B now!
10-day predictions


NORAD ID: 19196
Int'l Code: 1988-046B
Perigee: 1,492.0 km
Apogee: 1,523.6 km
Inclination: 73.6 °
Period: 116.0 minutes
Semi major axis: 7878 km
RCS: 5.4646 m2 (large)
Launch date: May 30, 1988
Source: Commonwealth of Independent States (former USSR) (CIS)
Launch site: PLESETSK MISSILE AND SPACE COMPLEX (PKMTR)

Note: This is a ROCKET BODY
aabbcc
Your satellite tracking list
Your tracking list is empty




NASA's NSSDC Master Catalog

Two Line Element Set (TLE):
1 19196U 88046B   19293.69462715 -.00000017 +00000-0 -14737-5 0  9993
2 19196 073.5965 109.3670 0020081 060.2528 044.2069 12.41397084422577
Source of the keplerian elements: AFSPC